Tracking 31027 objects as of 19-Jul-2025
HD Live streaming from Space Station
objects crossing your sky now

ARIANE 5 R/B

Track ARIANE 5 R/B now!


NORAD ID: 42742
Int'l Code: 2017-029C
Perigee: 337.6 km
Apogee: 34,669.0 km
Inclination: 6.0 °
Period: 611.9 minutes
Semi major axis: 23874 km
RCS: Unknown
Launch date: June 1, 2017
Source: France (FR)
Launch site: FRENCH GUIANA (FRGUI)

Note: This is a ROCKET BODY
Your satellite tracking list
IRIDIUM 106
Track 1 satellite(s)




NASA's NSSDC Master Catalog

Two Line Element Set (TLE):
1 42742U 17029C   25199.52088195  .00000255  00000-0  24084-3 0  9995
2 42742   5.9918 279.3366 7190019 100.4921 340.6159  2.35346006 68442
Source of the keplerian elements: AFSPC